Weather History for Oujda, Morocco

Change the Weather History Date:

Friday, August 15, 2014

  Actual Average Record
Temperature  
Mean Temperature 78 °F -  
Max Temperature 91 °F 86 °F - ()
Min Temperature 64 °F 62 °F - ()
Cooling Degree Days 12    
Growing Degree Days 28 (Base 50)    
Moisture  
Dew Point 64 °F    
Average Humidity 64    
Maximum Humidity 95    
Minimum Humidity 32    
Precipitation  
Precipitation 0.00 in 0.01 in - ()
Sea Level Pressure  
Sea Level Pressure 30.00 in    
Wind  
Wind Speed 6 mph ()    
Max Wind Speed 21 mph    
Max Gust Speed -    
Visibility 9.8 miles    
Events      
T = Trace of Precipitation, MM = Missing Value Source: Averaged Metar Reports

Daily Weather History Graph

Daily Weather History Graph

Search for Another Location

Airport:

Trip Planner

Search our weather history database for the weather conditions in past years. The results will help you decide how hot, cold, wet, or windy it might be!

Date:

Astronomy

Aug. 15, 2014 Rise Set
Actual Time 6:27 AM WEST 7:55 PM WEST
Civil Twilight 6:01 AM WEST 8:22 PM WEST
Nautical Twilight 5:29 AM WEST 8:54 PM WEST
Astronomical Twilight 4:55 AM WEST 9:28 PM WEST
Moon 11:04 PM WEST (8/15) 11:39 AM WEST (8/15)
Length of Visible Light 14h 21m
Length of Day
13h 28m
Waning Gibbous, 71% of the Moon is Illuminated
Aug 15
Waning Gibbous
Aug 17
Last Quarter
Aug 25
New
Sep 2
First Quarter
Sep 9
Full

Hourly Weather History & Observations

Time (WEST) Temp. Heat Index Dew Point Humidity Pressure Visibility Wind Dir Wind Speed Gust Speed Precip Events Conditions
12:00 AM 71.6 °F - 59.0 °F 64% 30.04 in - SW 2.3 mph - N/A   Clear
1:00 AM 72 °F - 58 °F 53% 29.98 in 12 mi WNW 3.5 mph - -  
1:00 AM 71.6 °F - 59.0 °F 64% 30.04 in - WNW 3.5 mph - N/A   Clear
2:00 AM 69.8 °F - 55.4 °F 60% 30.04 in - WSW 3.5 mph - N/A   Clear
3:00 AM 69.8 °F - 66.2 °F 88% 30.04 in - North 4.6 mph - N/A   Clear
4:00 AM 66 °F - 64 °F 91% 29.99 in 12 mi SW 3.5 mph - -  
4:00 AM 66.2 °F - 64.4 °F 94% 30.04 in - SW 3.5 mph - N/A   Clear
5:00 AM 66.2 °F - 62.6 °F 88% 30.04 in - West 3.5 mph - N/A   Clear
6:00 AM 66.2 °F - 64.4 °F 94% 30.04 in - North 4.6 mph - N/A   Clear
7:00 AM 68 °F - 67 °F 95% 29.99 in 12 mi North 5.8 mph - -  
7:00 AM 68.0 °F - 66.2 °F 94% 30.04 in - North 5.8 mph - N/A   Clear
8:00 AM 69.8 °F - 66.2 °F 88% 30.04 in - North 3.5 mph - N/A   Clear
9:00 AM 75.2 °F - 64.4 °F 69% 30.04 in - Calm Calm - N/A   Clear
9:45 AM 80 °F - 61 °F 43% 29.98 in 12 mi NE 6.7 mph - -  
10:00 AM 78.8 °F - 60.8 °F 54% 30.06 in - NE 3.5 mph - N/A   Clear
11:00 AM 84.2 °F 84.4 °F 60.8 °F 45% 30.04 in - ENE 4.6 mph - N/A   Clear
12:00 PM 87.8 °F 87.1 °F 59.0 °F 38% 30.04 in - ENE 6.9 mph - N/A   Clear
12:47 PM 90 °F - 64 °F 32% 29.91 in 12 mi North 11.2 mph - -  
1:00 PM 90 °F - 64 °F 32% 29.91 in 12 mi North 11.2 mph - -  
1:00 PM 91.4 °F 93.2 °F 64.4 °F 41% 30.04 in - North 6.9 mph - N/A   Clear
3:00 PM 89.6 °F 93.4 °F 68.0 °F 49% 30.01 in - North 18.4 mph - N/A   Clear
4:00 PM 86 °F - 68 °F 45% 29.88 in 12 mi North 20.7 mph - -  
4:00 PM 86.0 °F 89.4 °F 68.0 °F 55% 29.98 in - North 20.7 mph - N/A   Clear
5:00 PM 82.4 °F 84.6 °F 66.2 °F 58% 29.98 in - North 19.6 mph - N/A   Clear
6:00 PM 82.4 °F 84.6 °F 66.2 °F 58% - - North 20.7 mph - N/A   Clear
7:00 PM 80 °F - 67 °F 56% 29.90 in 12 mi North 17.3 mph - -  
7:00 PM 80.6 °F 83.2 °F 68.0 °F 65% 29.98 in - North 17.3 mph - N/A   Clear
8:00 PM 77.0 °F - 64.4 °F 65% 30.01 in 6.2 mi North 15.0 mph - N/A   Partly Cloudy
9:00 PM 75.2 °F - 64.4 °F 69% 30.01 in 6.2 mi North 13.8 mph - N/A   Partly Cloudy
10:00 PM 75 °F - 63 °F 59% 29.98 in 6 mi North 9.2 mph - -   Scattered Clouds
10:00 PM 75.2 °F - 62.6 °F 65% 30.04 in 6.2 mi North 9.2 mph - N/A   Partly Cloudy
11:00 PM 73.4 °F - 64.4 °F 73% 30.04 in 6.2 mi North 5.8 mph - N/A   Partly Cloudy